sat.trackr.live / text

‹ back to catalog

STARLINK-4377

NORAD 53221 · 2022-084AJ

PAYLOAD ACTIVE UNKNOWN

§ Identity

Operator
Country
US
Launch date
2022-07-22
Launch site
AFWTR
Launch vehicle
Mass (kg)
RCS (m²)

Purposes: comms

External: N2YO · Heavens-Above · Gunter

§ Orbital elements

Epoch: 2026-05-25T02:50:59.246592Z

Period
95.64 min
Inclination
97.4508°
Eccentricity
0.0003007
Mean motion
15.05660043 rev/d
Perigee alt
547.4 km
Apogee alt
551.6 km
Semi-major
6,927.6 km
B*
-1.8875e-5
RAAN
205.1076°
Arg perigee
143.1464°
Mean anomaly
216.9970°
Rev number
21,081

§ Raw data

STARLINK-43771 53221U 22084AJ  26145.11874128 -.00000331  00000+0 -18875-4 0  99902 53221  97.4508 205.1076 0003007 143.1464 216.9970 15.05660043210818

JSON: /api/v1/satellites/53221 · /tle

For live sub-satellite position, see the globe view (requires WebGL).

§ Visibility from observer

Set your observer location to see the next 7 days of passes ≥ 10°. The values pass through the URL so the page stays shareable.

No JS? Fill the form by hand. The geolocation button needs JavaScript.